Change the Weather History Date:

Monday, November 11, 2013

  Actual Average Record
Temperature  
Mean Temperature 62 °F -  
Max Temperature 79 °F 68 °F 86 °F (1996)
Min Temperature 46 °F 44 °F 33 °F (2003)
Degree Days  
Heating Degree Days 2    
Growing Degree Days 12 (Base 50)    
Moisture  
Dew Point 21 °F    
Average Humidity 23    
Maximum Humidity 34    
Minimum Humidity 12    
Precipitation  
Precipitation 0.00 in - - ()
Sea Level Pressure  
Sea Level Pressure 30.12 in    
Wind  
Wind Speed 5 mph (WNW)    
Max Wind Speed 13 mph    
Max Gust Speed -    
Visibility 10 miles    
Events      
Averages and records for this station are not official NWS values.
T = Trace of Precipitation, MM = Missing Value Source: NWS Daily Summary

Daily Weather History Graph

Daily Weather History Graph

Search for Another Location

Airport or City:

Trip Planner

Search our weather history database for the weather conditions in past years. The results will help you decide how hot, cold, wet, or windy it might be!

Date:

Astronomy

Nov. 11, 2013 Rise Set
Actual Time 6:14 AM PST 4:42 PM PST
Civil Twilight 5:47 AM PST 5:09 PM PST
Nautical Twilight 5:17 AM PST 5:39 PM PST
Astronomical Twilight 4:47 AM PST 6:09 PM PST
Moon 1:12 PM PST (11/11) 12:19 AM PST (11/11)
Length of Visible Light 11h 21m
Length of Day
10h 28m
Waxing Gibbous, 67% of the Moon is Illuminated
Nov 11
Waxing Gibbous
Nov 17
Full
Nov 25
Last Quarter
Dec 2
New
Dec 9
First Quarter

Hourly Weather History & Observations

Time (PST) Temp. Dew Point Humidity Pressure Visibility Wind Dir Wind Speed Gust Speed Precip Events Conditions
12:56 AM 52.0 °F 21.0 °F 30% 30.13 in 10.0 mi NW 9.2 mph - N/A   Clear
1:56 AM 50.0 °F 21.0 °F 32% 30.12 in 10.0 mi WNW 5.8 mph - N/A   Clear
2:56 AM 48.0 °F 19.9 °F 33% 29.46 in 10.0 mi NNW 3.5 mph - N/A   Clear
3:56 AM 46.9 °F 19.9 °F 34% 30.13 in 10.0 mi NNW 5.8 mph - N/A   Clear
4:56 AM 48.0 °F 19.9 °F 33% 30.14 in 10.0 mi WNW 8.1 mph - N/A   Clear
5:56 AM 46.0 °F 19.0 °F 34% 30.17 in 10.0 mi Calm Calm - N/A   Clear
6:56 AM 48.0 °F 19.9 °F 33% 30.18 in 10.0 mi NW 6.9 mph - N/A   Clear
7:56 AM 52.0 °F 19.0 °F 27% 30.19 in 10.0 mi NW 5.8 mph - N/A   Clear
8:56 AM 55.9 °F 19.0 °F 24% 30.19 in 10.0 mi NNW 3.5 mph - N/A   Clear
9:56 AM 64.9 °F 21.0 °F 19% 30.19 in 10.0 mi Calm Calm - N/A   Clear
10:56 AM 73.0 °F 21.0 °F 14% 30.16 in 10.0 mi Calm Calm - N/A   Clear
11:56 AM 75.9 °F 21.9 °F 13% 30.12 in 10.0 mi Calm Calm - N/A   Clear
12:56 PM 79.0 °F 21.9 °F 12% 30.09 in 10.0 mi Calm Calm - N/A   Clear
1:56 PM 79.0 °F 23.0 °F 13% 30.09 in 10.0 mi West 4.6 mph - N/A   Clear
2:56 PM 79.0 °F 23.0 °F 13% 30.09 in 10.0 mi Calm Calm - N/A   Clear
3:56 PM 78.1 °F 23.0 °F 13% 30.09 in 9.0 mi WNW 4.6 mph - N/A   Clear
4:56 PM 71.1 °F 21.9 °F 16% 30.11 in 10.0 mi WNW 6.9 mph - N/A   Clear
5:56 PM 66.9 °F 21.9 °F 18% 30.12 in 8.0 mi NW 6.9 mph - N/A   Clear
6:56 PM 64.9 °F 21.9 °F 19% 30.14 in 10.0 mi West 12.7 mph - N/A   Clear
7:56 PM 64.0 °F 21.9 °F 20% 30.16 in 10.0 mi Variable 6.9 mph - N/A   Clear
8:56 PM 62.1 °F 21.9 °F 21% 30.17 in 10.0 mi West 8.1 mph - N/A   Clear
9:56 PM 61.0 °F 21.9 °F 22% 30.18 in 9.0 mi West 10.4 mph - N/A   Clear
10:56 PM 57.9 °F 21.0 °F 24% 30.17 in 10.0 mi Calm Calm - N/A   Clear
11:56 PM 55.9 °F 21.9 °F 27% 30.18 in 10.0 mi WNW 4.6 mph - N/A   Clear